Weather History for Dayton Wright, OH

Change the Weather History Date:

Tuesday, April 1, 2014

  Actual Average (KFFO) Record (KFFO)
Temperature  
Mean Temperature 62 °F -  
Max Temperature 73 °F 57 °F 75 °F (2003)
Min Temperature 52 °F 35 °F 24 °F (1997)
Degree Days  
Heating Degree Days 2    
Growing Degree Days 12 (Base 50)    
Moisture  
Dew Point 30 °F    
Average Humidity 33    
Maximum Humidity 53    
Minimum Humidity 13    
Precipitation  
Precipitation 0.00 in - - ()
Sea Level Pressure  
Sea Level Pressure 29.95 in    
Wind  
Wind Speed 13 mph (SW)    
Max Wind Speed 25 mph    
Max Gust Speed 37 mph    
Visibility 10 miles    
Events      
Averages and records for this station are not official NWS values.
T = Trace of Precipitation, MM = Missing Value Source: NWS Daily Summary

Daily Weather History Graph

Daily Weather History Graph

Search for Another Location

Airport:

Trip Planner

Search our weather history database for the weather conditions in past years. The results will help you decide how hot, cold, wet, or windy it might be!

Date:

Astronomy

Apr. 01, 2014 Rise Set
Actual Time 7:21 AM EDT 8:00 PM EDT
Civil Twilight 6:54 AM EDT 8:28 PM EDT
Nautical Twilight 6:21 AM EDT 9:00 PM EDT
Astronomical Twilight 5:49 AM EDT 9:33 PM EDT
Moon 8:23 AM EDT (4/1) 10:22 PM EDT (4/1)
Length of Visible Light 13h 34m
Length of Day
12h 39m
Waxing Crescent, 4% of the Moon is Illuminated
Apr 1
Waxing Crescent
Apr 7
First Quarter
Apr 15
Full
Apr 22
Last Quarter
Apr 29
New

Hourly Weather History & Observations

Time (EDT) Temp. Dew Point Humidity Pressure Visibility Wind Dir Wind Speed Gust Speed Precip Events Conditions
12:53 AM 55.0 °F 28.0 °F 35% 29.98 in 10.0 mi SSE 10.4 mph - N/A   Clear
1:53 AM 55.0 °F 28.9 °F 37% 29.96 in 10.0 mi SSE 11.5 mph - N/A   Mostly Cloudy
2:53 AM 55.9 °F 28.9 °F 36% 29.95 in 10.0 mi SSE 10.4 mph - N/A   Overcast
3:53 AM 52.0 °F 35.1 °F 53% 29.96 in 10.0 mi South 8.1 mph - 0.00 in   Overcast
4:53 AM 53.1 °F 35.1 °F 50% 29.92 in 10.0 mi South 6.9 mph - 0.00 in   Overcast
5:53 AM 54.0 °F 34.0 °F 47% 29.91 in 10.0 mi South 9.2 mph - N/A   Overcast
6:53 AM 54.0 °F 34.0 °F 47% 29.91 in 10.0 mi South 10.4 mph - N/A   Mostly Cloudy
7:53 AM 54.0 °F 35.1 °F 49% 29.91 in 10.0 mi South 10.4 mph - N/A   Clear
8:53 AM 57.9 °F 36.0 °F 44% 29.90 in 10.0 mi South 13.8 mph - N/A   Clear
9:53 AM 63.0 °F 37.0 °F 38% 29.91 in 10.0 mi SW 16.1 mph 23.0 mph N/A   Clear
10:53 AM 64.9 °F 37.0 °F 36% 29.91 in 10.0 mi SW 18.4 mph 31.1 mph N/A   Clear
11:53 AM 68.0 °F 36.0 °F 31% 29.91 in 10.0 mi SW 21.9 mph 36.8 mph N/A   Clear
12:53 PM 70.0 °F 37.0 °F 30% 29.90 in 10.0 mi SW 23.0 mph 32.2 mph N/A   Clear
1:53 PM 72.0 °F 33.1 °F 24% 29.90 in 10.0 mi WSW 20.7 mph 31.1 mph N/A   Clear
2:53 PM 72.0 °F 30.9 °F 22% 29.90 in 10.0 mi WSW 24.2 mph 33.4 mph N/A   Clear
3:53 PM 73.0 °F 24.1 °F 16% 29.91 in 10.0 mi WSW 25.3 mph 36.8 mph N/A   Clear
4:53 PM 73.0 °F 21.0 °F 14% 29.92 in 10.0 mi West 19.6 mph 34.5 mph N/A   Clear
5:53 PM 72.0 °F 19.0 °F 13% 29.94 in 10.0 mi West 20.7 mph 34.5 mph N/A   Clear
6:53 PM 70.0 °F 19.0 °F 14% 29.95 in 10.0 mi West 15.0 mph - N/A   Clear
7:53 PM 66.9 °F 19.0 °F 16% 29.98 in 10.0 mi West 11.5 mph - N/A   Clear
8:53 PM 63.0 °F 26.1 °F 25% 30.01 in 10.0 mi WNW 10.4 mph - N/A   Partly Cloudy
9:53 PM 60.1 °F 28.9 °F 31% 30.04 in 10.0 mi WNW 10.4 mph - N/A   Overcast
10:53 PM 57.9 °F 32.0 °F 37% 30.05 in 10.0 mi WNW 10.4 mph - N/A   Mostly Cloudy
11:53 PM 55.9 °F 32.0 °F 40% 30.06 in 10.0 mi WNW 9.2 mph - N/A   Overcast